Location: São Paulo
(23.5507°S, 46.6334°W)
Time: 09:52:42
(UTC-03:00)

Transit 4A - Pass Details

Date: 20 February 2026
Orbit: 864 x 977 km, 66.8° (Epoch: 11 March)

Event Time Altitude Azimuth Distance (km) Brightness Sun altitude
Rises 13:57:53 0° 350° (N) 3,657 11.2 63.5°
Reaches altitude 10° 14:00:29 10° 354° (N) 2,713 10.7 62.9°
Maximum altitude 14:06:42 57° 70° (ENE) 1,137 9.0 61.6°
Drops below altitude 10° 14:12:51 10° 147° (SSE) 2,695 10.2 60.3°
Sets 14:15:25 0° 151° (SSE) 3,631 10.8 59.7°
